TimeSAST,TemperatureF,Dew PointF,Humidity,Sea Level PressureIn,VisibilityMPH,Wind Direction,Wind SpeedMPH,Gust SpeedMPH,PrecipitationIn,Events,Conditions,WindDirDegrees,DateUTC
12:00 AM,68.0,64.4,88,29.86,6.2,NE,17.3,-,N/A,Rain,Light Rain,40,2013-01-29 22:00:00
1:00 AM,68.0,64.4,88,29.83,6.2,SW,6.9,-,N/A,,Partly Cloudy,230,2013-01-29 23:00:00
2:00 AM,68,65,87,29.87,6,,2.3,,,,,,2013-01-30 00:00:00
2:00 AM,68.0,66.2,94,29.89,5.6,Variable,2.3,-,N/A,,Overcast,0,2013-01-30 00:00:00
3:00 AM,68.0,66.2,94,29.86,3.7,NW,3.5,-,N/A,,Mostly Cloudy,320,2013-01-30 01:00:00
4:00 AM,66.2,64.4,94,29.86,-9999.0,Variable,2.3,-,N/A,,Mostly Cloudy,0,2013-01-30 02:00:00
5:00 AM,67,67,100,29.89,3,NW,6.9,,,,Mist,310,2013-01-30 03:00:00
5:00 AM,68.0,66.2,94,29.89,3.1,NW,4.6,-,N/A,,Mostly Cloudy,310,2013-01-30 03:00:00
6:00 AM,66.2,64.4,94,29.89,3.1,WSW,5.8,-,N/A,,Scattered Clouds,240,2013-01-30 04:00:00
7:00 AM,68.0,66.2,94,29.89,1.7,SW,10.4,-,N/A,,Mostly Cloudy,230,2013-01-30 05:00:00
8:00 AM,70,67,86,29.92,12,West,5.8,,,,Mostly Cloudy,270,2013-01-30 06:00:00
8:00 AM,69.8,66.2,88,29.92,6.2,West,5.8,-,N/A,,Scattered Clouds,270,2013-01-30 06:00:00
9:00 AM,73.4,66.2,78,29.92,6.2,West,8.1,-,N/A,,Scattered Clouds,260,2013-01-30 07:00:00
10:00 AM,71.6,66.2,83,29.92,6.2,South,10.4,-,N/A,,Mostly Cloudy,190,2013-01-30 08:00:00
11:00 AM,74,67,73,29.94,12,South,9.2,,,,Mostly Cloudy,190,2013-01-30 09:00:00
11:00 AM,75.2,68.0,78,29.92,6.2,South,9.2,-,N/A,,Mostly Cloudy,190,2013-01-30 09:00:00
12:00 PM,73.4,66.2,78,29.95,6.2,SSW,9.2,-,N/A,,Mostly Cloudy,200,2013-01-30 10:00:00
1:00 PM,75.2,68.0,78,29.95,6.2,SSW,9.2,-,N/A,,Scattered Clouds,200,2013-01-30 11:00:00
2:00 PM,74,67,73,29.94,12,SSW,13.8,,,,Mostly Cloudy,200,2013-01-30 12:00:00
2:00 PM,73.4,68.0,83,29.95,6.2,SSW,12.7,-,N/A,,Mostly Cloudy,200,2013-01-30 12:00:00
3:00 PM,73.4,66.2,78,29.98,6.2,SSW,9.2,-,N/A,,Mostly Cloudy,210,2013-01-30 13:00:00
4:00 PM,73.4,68.0,83,29.98,6.2,SSW,8.1,-,N/A,,Mostly Cloudy,210,2013-01-30 14:00:00
5:00 PM,70,67,87,29.98,3,South,9.2,,,Rain,Light Rain,170,2013-01-30 15:00:00
5:00 PM,69.8,66.2,88,29.98,3.1,SSE,9.2,-,N/A,Rain,Light Rain,160,2013-01-30 15:00:00
6:00 PM,71.6,68.0,88,30.01,1.9,South,11.5,-,N/A,,Overcast,190,2013-01-30 16:00:00
7:00 PM,69.8,68.0,94,30.01,3.1,South,8.1,-,N/A,,Overcast,180,2013-01-30 17:00:00
8:00 PM,70,67,89,30.03,3,South,13.8,,,,Partly Cloudy,190,2013-01-30 18:00:00
8:00 PM,69.8,68.0,94,30.04,3.1,South,13.8,-,N/A,,Overcast,190,2013-01-30 18:00:00
9:00 PM,68.0,66.2,94,30.04,5.0,South,8.1,-,N/A,,Overcast,180,2013-01-30 19:00:00
10:00 PM,68.0,66.2,94,30.06,6.2,South,9.2,-,N/A,Rain,Light Rain,180,2013-01-30 20:00:00
11:00 PM,68.0,66.2,94,30.06,6.2,SW,4.6,-,N/A,,Overcast,220,2013-01-30 21:00:00